QPF
0.00 0.00 0.00 0.00 0.00 0.00 0.00 0.00 0.00 0.00 0.00 0.00 0.00 0.00 0.00 0.00 0.00 0.00 0.00 0.00 0.00 0.00 0.00 0.00 0.00 0.00 0.00 0.00 0.00 0.00 0.00 0.00 0.00 0.00 0.00 0.00 0.00 0.00 0.00 0.00 0.00 0.00 0.00
0.00 0.00 0.00 0.00 0.00 0.00 0.00 0.00 0.00 0.00 0.00 0.00 0.00 0.00 0.00 0.00 0.00 0.00 0.00 0.00 0.00 0.00 0.00 0.00 0.00 0.00 0.00 0.00 0.00 0.00 0.00 0.00 0.00 0.00 0.00 0.00 0.00 0.00 0.00 0.00 0.00 0.00 0.00
0.00 0.00 0.00 0.00 0.00 0.00 0.00 0.00 0.00 0.00 0.00 0.00 0.00 0.00 0.00 0.00 0.00 0.00 0.00 0.00 0.00 0.00 0.00 0.00 0.00 0.00 0.00 0.00 0.00 0.00 0.00 0.00 0.00 0.00 0.00 0.00 0.00 0.00 0.00 0.00 0.00 0.00 0.00
0.00 0.00 0.00 0.00 0.00 0.00 0.00 0.00 0.00 0.00 0.00 0.00 0.00 0.00 0.00 0.00 0.00 0.00 0.00 0.00 0.00 0.00 0.00 0.00 0.00 0.00 0.00 0.00 0.00 0.00 0.00 0.00 0.00 0.00 0.00 0.00 0.00 0.00 0.00 0.00 0.00 0.00 0.00
0.00 0.00 0.00 0.00 0.00 0.00 0.00 0.00 0.00 0.00 0.00 0.00 0.00 0.00 0.00 0.00 0.00 0.00 0.00 0.00 0.00 0.00 0.00 0.00 0.00 0.00 0.00 0.00 0.00 0.00 0.00 0.00 0.00 0.00 0.00 0.00 0.00 0.00 0.00 0.00 0.00 0.00 0.00
0.00 0.00 0.00 0.00 0.00 0.00 0.00 0.00 0.00 0.00 0.00 0.00 0.00 0.00 0.00 0.00 0.00 0.00 0.00 0.00 0.00 0.00 0.00 0.00 0.00 0.00 0.00 0.00 0.00 0.00 0.00 0.00 0.00 0.00 0.00 0.00 0.00 0.00 0.00 0.00 0.00 0.00 0.00
0.00 0.00 0.00 0.00 0.00 0.00 0.00 0.00 0.00 0.00 0.00 0.00 0.00 0.00 0.00 0.00 0.00 0.00 0.00 0.00 0.00 0.00 0.00 0.00 0.00 0.00 0.00 0.00 0.00 0.00 0.00 0.00 0.00 0.00 0.00 0.00 0.00 0.00 0.00 0.00 0.00 0.01 0.00
0.00 0.00 0.00 0.00 0.00 0.00 0.00 0.00 0.00 0.00 0.00 0.00 0.00 0.00 0.00 0.00 0.00 0.00 0.00 0.00 0.00 0.00 0.00 0.00 0.00 0.00 0.00 0.00 0.00 0.00 0.00 0.00 0.00 0.00 0.00 0.00 0.00 0.00 0.00 0.00 0.01 0.01 0.00
0.00 0.00 0.00 0.00 0.00 0.00 0.00 0.00 0.00 0.00 0.00 0.00 0.00 0.00 0.00 0.00 0.00 0.00 0.00 0.00 0.00 0.00 0.00 0.00 0.00 0.00 0.00 0.00 0.00 0.00 0.00 0.00 0.00 0.00 0.00 0.00 0.00 0.00 0.00 0.01 0.01 0.00 0.00
0.00 0.00 0.00 0.00 0.00 0.00 0.00 0.00 0.00 0.00 0.00 0.00 0.00 0.00 0.00 0.00 0.00 0.00 0.00 0.00 0.00 0.00 0.00 0.00 0.00 0.00 0.00 0.00 0.00 0.00 0.00 0.00 0.00 0.00 0.00 0.00 0.00 0.00 0.00 0.02 0.02 0.00 0.00
0.00 0.00 0.00 0.00 0.00 0.00 0.00 0.00 0.00 0.00 0.00 0.00 0.00 0.00 0.00 0.00 0.00 0.00 0.00 0.00 0.00 0.00 0.00 0.00 0.00 0.00 0.00 0.00 0.00 0.00 0.00 0.00 0.00 0.00 0.00 0.00 0.00 0.00 0.00 0.01 0.03 0.00 0.00
0.00 0.00 0.00 0.00 0.00 0.00 0.00 0.00 0.00 0.00 0.00 0.00 0.00 0.00 0.00 0.00 0.00 0.00 0.00 0.00 0.00 0.00 0.00 0.00 0.00 0.00 0.00 0.00 0.00 0.00 0.00 0.00 0.00 0.00 0.00 0.00 0.00 0.00 0.00 0.00 0.01 0.01 0.01
0.00 0.00 0.00 0.00 0.00 0.00 0.00 0.00 0.00 0.00 0.00 0.00 0.00 0.00 0.00 0.00 0.00 0.00 0.00 0.00 0.00 0.00 0.00 0.00 0.00 0.00 0.00 0.00 0.00 0.00 0.00 0.00 0.00 0.00 0.00 0.00 0.00 0.00 0.00 0.00 0.00 0.00 0.01
0.00 0.00 0.00 0.00 0.00 0.00 0.00 0.00 0.00 0.00 0.00 0.00 0.00 0.00 0.00 0.00 0.00 0.00 0.00 0.00 0.00 0.00 0.00 0.00 0.00 0.00 0.00 0.00 0.00 0.00 0.00 0.00 0.00 0.00 0.00 0.00 0.00 0.00 0.00 0.00 0.00 0.00 0.00
0.00 0.00 0.00 0.00 0.00 0.00 0.00 0.00 0.00 0.00 0.00 0.00 0.00 0.00 0.00 0.00 0.00 0.00 0.00 0.00 0.00 0.00 0.00 0.00 0.00 0.00 0.00 0.00 0.00 0.00 0.00 0.00 0.00 0.00 0.00 0.00 0.00 0.00 0.00 0.00 0.00 0.00 0.00
0.00 0.00 0.00 0.00 0.00 0.00 0.00 0.00 0.00 0.00 0.00 0.00 0.00 0.00 0.00 0.00 0.00 0.00 0.00 0.00 0.00 0.00 0.00 0.00 0.00 0.00 0.00 0.00 0.00 0.00 0.00 0.00 0.00 0.00 0.00 0.00 0.00 0.00 0.00 0.00 0.00 0.00 0.00
0.00 0.00 0.00 0.00 0.00 0.00 0.00 0.00 0.00 0.00 0.00 0.00 0.00 0.00 0.00 0.00 0.00 0.00 0.00 0.00 0.00 0.00 0.00 0.00 0.00 0.00 0.00 0.00 0.00 0.00 0.00 0.00 0.00 0.00 0.00 0.00 0.00 0.00 0.00 0.00 0.00 0.00 0.00
0.00 0.00 0.00 0.00 0.00 0.00 0.00 0.00 0.00 0.00 0.00 0.00 0.00 0.00 0.00 0.00 0.00 0.00 0.00 0.00 0.00 0.00 0.00 0.00 0.00 0.00 0.00 0.00 0.00 0.00 0.00 0.00 0.00 0.00 0.00 0.00 0.00 0.00 0.00 0.00 0.00 0.00 0.00
0.00 0.00 0.00 0.00 0.00 0.00 0.00 0.00 0.00 0.00 0.00 0.00 0.00 0.00 0.00 0.00 0.00 0.00 0.00 0.00 0.00 0.00 0.00 0.00 0.00 0.00 0.00 0.00 0.00 0.00 0.00 0.00 0.00 0.00 0.00 0.00 0.00 0.00 0.00 0.00 0.00 0.00 0.00
0.00 0.00 0.00 0.00 0.00 0.00 0.00 0.00 0.00 0.00 0.00 0.00 0.00 0.00 0.00 0.00 0.00 0.00 0.00 0.00 0.00 0.00 0.00 0.00 0.00 0.00 0.00 0.00 0.00 0.00 0.00 0.00 0.00 0.00 0.00 0.00 0.00 0.00 0.00 0.00 0.00 0.00 0.00
0.00 0.00 0.00 0.00 0.00 0.00 0.00 0.00 0.00 0.00 0.00 0.00 0.00 0.00 0.00 0.00 0.00 0.00 0.00 0.00 0.00 0.00 0.00 0.00 0.00 0.00 0.00 0.00 0.00 0.00 0.00 0.00 0.00 0.00 0.00 0.00 0.00 0.00 0.00 0.00 0.00 0.00 0.00
0.00 0.00 0.00 0.00 0.00 0.00 0.00 0.00 0.00 0.00 0.00 0.00 0.00 0.00 0.00 0.00 0.00 0.00 0.00 0.00 0.00 0.00 0.00 0.00 0.00 0.00 0.00 0.00 0.00 0.00 0.00 0.00 0.00 0.00 0.00 0.00 0.00 0.00 0.00 0.00 0.00 0.00 0.00
0.00 0.00 0.00 0.00 0.00 0.00 0.00 0.00 0.00 0.00 0.00 0.00 0.00 0.00 0.00 0.00 0.00 0.00 0.00 0.00 0.00 0.00 0.00 0.00 0.00 0.00 0.00 0.00 0.00 0.00 0.00 0.00 0.00 0.00 0.00 0.00 0.00 0.00 0.00 0.00 0.00 0.00 0.00
0.00 0.00 0.00 0.00 0.00 0.00 0.00 0.00 0.00 0.00 0.00 0.00 0.00 0.00 0.00 0.00 0.00 0.00 0.00 0.00 0.00 0.00 0.00 0.00 0.00 0.00 0.00 0.00 0.00 0.00 0.00 0.00 0.00 0.00 0.00 0.00 0.00 0.00 0.00 0.00 0.00 0.00 0.00
0.00 0.00 0.00 0.00 0.00 0.00 0.00 0.00 0.00 0.00 0.00 0.00 0.00 0.00 0.00 0.00 0.00 0.00 0.00 0.00 0.00 0.00 0.00 0.00 0.00 0.00 0.00 0.00 0.00 0.00 0.00 0.00 0.00 0.00 0.00 0.00 0.00 0.00 0.00 0.00 0.00 0.00 0.00
0.00 0.00 0.00 0.00 0.00 0.00 0.00 0.00 0.00 0.00 0.00 0.00 0.00 0.00 0.00 0.00 0.00 0.00 0.00 0.00 0.00 0.00 0.00 0.00 0.00 0.00 0.00 0.00 0.00 0.00 0.00 0.00 0.00 0.00 0.00 0.00 0.00 0.00 0.00 0.00 0.00 0.00 0.00
MSLP
1008.88 1009.72 1010.34 1011.24 1012.15 1013.21 1013.93 1014.52 1015.05 1015.39 1015.51 1015.72 1016.01 1016.37 1016.74 1016.99 1016.95 1017.09 1017.33 1017.34 1017.56 1017.72 1017.72 1017.63 1017.83 1017.90 1017.94 1017.91 1017.83 1017.56 1017.37 1017.20 1016.93 1016.13 1015.49 1014.91 1014.62 1014.41 1013.89 1013.29 1012.81 1012.10 1011.40
1009.41 1009.91 1010.80 1011.63 1012.69 1013.36 1013.96 1014.49 1014.97 1015.39 1015.75 1015.84 1015.93 1016.41 1016.83 1017.15 1017.21 1017.37 1017.54 1017.73 1017.87 1018.07 1018.10 1018.02 1018.23 1018.40 1018.67 1018.67 1018.57 1018.23 1017.83 1017.46 1017.27 1016.62 1015.90 1015.51 1015.32 1014.84 1014.66 1013.98 1013.24 1012.43 1011.53
1009.45 1010.41 1011.65 1012.23 1012.90 1013.40 1013.95 1014.40 1015.09 1015.67 1015.81 1016.03 1016.21 1016.57 1017.01 1017.31 1017.51 1017.67 1017.86 1017.98 1018.17 1018.49 1018.42 1018.32 1018.38 1018.67 1019.12 1019.16 1019.08 1018.90 1018.35 1017.82 1017.20 1016.93 1016.57 1016.27 1016.04 1015.47 1014.71 1014.17 1013.65 1012.58 1011.46
1009.92 1010.98 1011.67 1012.27 1013.06 1013.45 1014.27 1014.83 1015.36 1015.87 1016.08 1016.35 1016.58 1016.95 1017.22 1017.59 1018.13 1018.11 1018.23 1018.34 1018.37 1018.45 1018.52 1018.61 1018.79 1019.25 1019.55 1019.61 1019.42 1019.14 1018.71 1018.28 1017.69 1017.39 1017.25 1016.93 1016.46 1015.69 1015.14 1014.49 1013.52 1012.72 1011.58
1009.99 1010.83 1011.78 1012.55 1013.25 1013.97 1014.49 1015.12 1015.80 1016.07 1016.34 1016.69 1017.01 1017.47 1018.03 1018.76 1019.33 1019.29 1019.05 1018.76 1018.75 1018.75 1018.91 1019.12 1019.40 1019.75 1020.02 1020.04 1019.92 1019.55 1019.09 1018.63 1018.22 1017.82 1017.45 1016.96 1016.47 1015.90 1015.43 1014.82 1014.05 1012.95 1011.85
1010.29 1011.10 1012.31 1012.75 1013.48 1014.21 1014.70 1015.60 1016.24 1016.32 1016.55 1016.85 1017.47 1018.05 1018.96 1019.61 1019.84 1019.86 1019.76 1019.35 1019.22 1019.21 1019.33 1019.56 1019.67 1019.95 1020.21 1020.18 1019.61 1019.12 1018.80 1018.57 1018.30 1018.00 1017.51 1017.26 1016.69 1016.23 1015.64 1015.15 1014.29 1013.12 1012.14
1010.31 1011.41 1012.39 1013.06 1013.63 1014.22 1014.98 1015.88 1016.57 1016.62 1016.88 1017.37 1018.01 1018.72 1019.69 1020.17 1020.30 1020.29 1020.15 1019.79 1019.36 1019.45 1019.62 1020.04 1020.16 1020.47 1020.75 1020.55 1019.76 1019.19 1018.56 1018.23 1018.19 1018.00 1017.77 1017.21 1016.87 1016.29 1015.90 1015.39 1014.57 1013.87 1013.03
1010.23 1011.12 1012.33 1013.01 1013.36 1014.47 1015.39 1016.14 1016.68 1017.33 1017.65 1018.12 1018.55 1019.21 1020.15 1020.67 1020.57 1020.59 1020.22 1019.93 1019.51 1019.41 1019.91 1020.41 1020.81 1021.07 1021.17 1021.07 1020.44 1019.48 1018.90 1018.41 1018.02 1017.71 1017.37 1016.95 1016.61 1016.17 1015.97 1015.73 1015.03 1014.08 1013.26
1009.99 1011.33 1012.05 1012.71 1013.73 1014.96 1015.86 1016.30 1016.91 1017.67 1018.16 1018.60 1018.87 1019.43 1020.38 1020.87 1020.81 1020.57 1020.13 1019.88 1019.53 1019.90 1020.53 1021.05 1021.16 1021.30 1021.56 1021.53 1020.86 1019.99 1019.42 1018.67 1017.87 1017.33 1016.96 1016.42 1016.00 1016.02 1015.86 1015.70 1015.13 1014.43 1013.66
1010.35 1011.34 1012.10 1012.97 1014.25 1015.44 1016.08 1016.48 1016.98 1017.62 1017.96 1018.44 1019.11 1019.76 1020.51 1021.03 1020.94 1020.79 1020.42 1020.21 1020.17 1020.27 1020.97 1021.13 1021.13 1021.26 1021.50 1021.48 1021.28 1020.71 1019.98 1019.20 1018.43 1017.43 1017.03 1016.22 1015.85 1015.39 1015.21 1015.15 1015.15 1014.98 1014.49
1009.88 1011.15 1012.68 1013.75 1014.73 1015.69 1016.18 1016.81 1017.07 1017.42 1018.04 1018.70 1019.42 1020.00 1020.51 1021.09 1021.42 1021.47 1021.25 1021.21 1021.06 1020.47 1020.60 1021.07 1021.18 1021.02 1021.11 1021.08 1020.91 1020.69 1020.21 1019.53 1018.45 1017.49 1017.08 1016.62 1016.05 1015.55 1015.11 1014.90 1014.92 1015.09 1014.86
1010.77 1012.24 1013.43 1014.35 1015.03 1015.75 1016.47 1017.00 1017.58 1018.04 1018.66 1019.09 1019.51 1019.89 1020.67 1021.18 1021.51 1021.73 1021.67 1021.66 1021.44 1021.05 1021.12 1021.21 1021.09 1020.93 1020.73 1020.83 1020.70 1020.46 1020.02 1019.31 1018.62 1018.12 1017.77 1017.27 1016.59 1015.89 1015.39 1015.05 1014.93 1014.85 1014.77
1011.55 1013.04 1013.69 1014.41 1015.48 1016.18 1016.67 1017.41 1017.83 1018.33 1018.84 1019.01 1019.19 1019.61 1020.31 1021.24 1021.78 1021.80 1021.78 1021.85 1021.47 1021.45 1021.48 1021.25 1021.04 1020.72 1020.63 1020.62 1020.56 1020.45 1020.11 1019.65 1019.11 1018.75 1018.25 1017.73 1017.01 1016.40 1015.61 1015.06 1015.07 1015.05 1014.71
1012.19 1013.19 1014.09 1015.05 1015.81 1016.33 1017.10 1017.60 1018.10 1018.59 1018.76 1018.96 1019.42 1020.06 1020.83 1021.62 1022.22 1022.59 1022.30 1022.08 1021.67 1021.71 1021.59 1021.28 1021.09 1020.75 1020.53 1020.69 1020.60 1020.50 1020.48 1020.06 1019.67 1019.29 1018.83 1018.11 1017.42 1016.81 1016.13 1015.54 1015.38 1015.17 1014.99
1012.75 1013.64 1014.52 1015.27 1016.65 1017.72 1019.01 1019.07 1019.66 1020.33 1020.03 1020.20 1020.55 1021.04 1021.37 1022.42 1023.45 1023.64 1023.59 1023.30 1023.07 1022.73 1022.09 1021.29 1021.32 1021.24 1021.20 1021.05 1020.97 1020.89 1020.83 1020.48 1020.12 1019.64 1019.25 1018.70 1018.05 1017.38 1016.79 1016.13 1016.04 1015.66 1015.23
1012.98 1013.77 1014.58 1015.64 1016.83 1018.03 1019.15 1020.15 1020.87 1021.30 1021.11 1021.19 1021.29 1021.73 1022.68 1023.14 1023.54 1023.47 1023.50 1023.40 1023.07 1022.79 1022.20 1022.00 1021.90 1021.87 1021.75 1021.83 1021.62 1021.41 1021.25 1021.06 1020.59 1020.11 1019.66 1019.21 1018.69 1017.99 1017.45 1016.75 1016.44 1016.25 1015.66
1013.34 1013.97 1014.86 1015.82 1016.89 1018.01 1018.81 1019.78 1020.93 1022.37 1022.27 1022.35 1022.30 1022.64 1023.05 1023.37 1023.40 1023.51 1023.45 1023.38 1022.84 1022.82 1022.55 1022.40 1022.55 1022.45 1022.33 1022.25 1022.24 1021.93 1021.79 1021.63 1021.22 1020.68 1020.19 1019.71 1019.21 1018.58 1018.13 1017.51 1017.08 1016.77 1016.23
1013.65 1014.31 1014.86 1015.69 1016.45 1017.23 1018.05 1019.23 1020.13 1020.92 1021.87 1022.76 1023.09 1023.15 1023.44 1023.42 1023.39 1023.39 1023.49 1023.53 1022.99 1022.99 1022.89 1023.12 1023.17 1023.07 1022.85 1022.65 1022.67 1022.43 1022.28 1022.14 1021.85 1021.32 1020.75 1020.22 1019.86 1019.29 1018.75 1018.15 1017.74 1017.29 1016.93
1013.88 1014.35 1014.85 1015.42 1015.87 1016.37 1017.46 1018.42 1019.14 1020.04 1021.11 1022.20 1023.10 1023.57 1023.61 1023.53 1023.46 1023.26 1023.17 1023.15 1023.23 1023.32 1023.29 1023.39 1023.55 1023.57 1023.55 1023.29 1023.17 1022.91 1022.81 1022.71 1022.49 1022.00 1021.38 1020.87 1020.47 1019.99 1019.36 1018.82 1018.30 1017.74 1017.47
1013.90 1014.42 1014.97 1015.42 1015.84 1016.59 1017.57 1018.15 1019.20 1019.85 1020.62 1021.47 1021.95 1022.46 1022.99 1023.47 1023.30 1023.39 1023.44 1023.42 1023.57 1023.72 1023.73 1023.71 1023.89 1024.07 1024.07 1023.97 1023.74 1023.58 1023.58 1023.55 1023.32 1022.80 1022.13 1021.53 1021.09 1020.57 1019.90 1019.37 1018.83 1018.46 1018.02
1014.21 1014.75 1015.23 1015.59 1015.83 1016.45 1017.06 1017.81 1018.76 1019.59 1020.11 1020.73 1021.74 1022.31 1022.42 1022.37 1022.66 1023.15 1023.43 1023.79 1023.96 1024.06 1024.09 1024.11 1024.33 1024.42 1024.60 1024.64 1024.61 1024.55 1024.57 1024.55 1024.21 1023.58 1023.00 1022.15 1021.64 1021.21 1020.44 1019.90 1019.41 1019.00 1018.60
1014.48 1014.81 1015.15 1015.65 1015.74 1016.31 1016.90 1017.65 1018.44 1019.43 1020.08 1020.92 1021.80 1022.41 1022.57 1022.52 1022.72 1023.21 1023.60 1023.98 1024.26 1024.45 1024.49 1024.59 1024.81 1025.11 1025.28 1025.48 1025.46 1025.53 1025.57 1025.56 1025.15 1024.46 1023.77 1023.12 1022.21 1021.81 1021.11 1020.55 1020.08 1019.59 1019.17
1015.02 1015.13 1014.99 1015.43 1016.04 1016.59 1016.91 1017.60 1018.46 1019.47 1020.25 1020.85 1021.75 1022.31 1022.45 1022.49 1022.88 1023.38 1023.84 1024.33 1024.56 1024.70 1025.05 1025.39 1025.64 1025.97 1026.12 1026.27 1026.22 1026.42 1026.56 1026.55 1026.17 1025.36 1024.85 1023.81 1022.79 1022.47 1021.81 1021.13 1020.72 1020.33 1019.95
1014.84 1014.91 1015.07 1015.69 1016.45 1016.65 1016.94 1017.69 1018.58 1019.32 1020.35 1020.76 1021.31 1021.78 1022.29 1022.67 1023.27 1023.84 1024.23 1024.50 1024.83 1025.27 1025.56 1025.88 1026.27 1026.70 1026.98 1026.93 1027.11 1027.04 1027.25 1027.23 1026.62 1025.96 1025.35 1024.43 1023.35 1022.99 1022.57 1021.94 1021.38 1020.89 1020.57
1014.75 1015.09 1015.25 1015.73 1016.53 1016.75 1017.33 1017.91 1018.67 1019.46 1020.09 1020.62 1021.29 1021.89 1022.34 1022.84 1023.51 1024.01 1024.31 1024.67 1025.07 1025.56 1025.97 1026.48 1026.65 1026.97 1027.44 1027.81 1027.83 1027.75 1027.60 1027.23 1026.77 1026.43 1025.45 1024.57 1023.90 1023.47 1023.14 1022.65 1022.22 1021.63 1021.31
1015.07 1015.27 1015.56 1016.09 1016.76 1017.25 1017.80 1018.39 1018.78 1019.34 1020.15 1020.88 1021.48 1021.98 1022.42 1022.95 1023.70 1024.22 1024.53 1025.02 1025.25 1025.55 1026.12 1026.64 1027.07 1027.41 1027.88 1028.30 1028.45 1028.21 1027.83 1027.34 1026.76 1026.15 1025.76 1024.62 1024.49 1024.21 1023.75 1023.31 1022.92 1022.35 1021.95
Thickness
5740 5738 5738 5734 5729 5722 5720 5717 5713 5710 5708 5706 5703 5698 5694 5689 5688 5684 5679 5675 5670 5664 5659 5654 5647 5643 5636 5631 5625 5622 5618 5613 5606 5606 5605 5601 5593 5586 5580 5573 5566 5560 5552
5730 5733 5730 5728 5719 5717 5716 5712 5709 5705 5702 5701 5700 5695 5690 5685 5683 5679 5674 5669 5664 5657 5652 5648 5641 5636 5627 5621 5616 5613 5611 5607 5602 5599 5598 5594 5586 5580 5571 5566 5561 5554 5550
5726 5724 5718 5717 5714 5714 5711 5709 5704 5698 5697 5696 5694 5690 5686 5682 5678 5674 5669 5664 5658 5651 5647 5643 5638 5630 5621 5614 5609 5605 5603 5601 5600 5595 5591 5585 5578 5574 5570 5563 5556 5553 5550
5716 5713 5713 5712 5709 5709 5704 5700 5696 5693 5692 5689 5688 5685 5682 5677 5670 5668 5663 5658 5653 5649 5644 5639 5632 5622 5614 5608 5605 5601 5598 5595 5593 5589 5583 5578 5573 5571 5566 5561 5557 5552 5550
5713 5711 5708 5706 5703 5699 5697 5693 5688 5687 5686 5683 5681 5677 5671 5663 5655 5652 5652 5651 5647 5643 5638 5632 5624 5616 5609 5604 5600 5596 5592 5590 5587 5583 5580 5577 5573 5569 5563 5558 5552 5552 5549
5706 5705 5700 5698 5695 5692 5691 5685 5680 5681 5680 5678 5673 5668 5659 5652 5646 5643 5641 5643 5640 5636 5631 5626 5620 5612 5605 5601 5600 5598 5593 5587 5583 5580 5578 5572 5569 5564 5560 5554 5551 5551 5548
5702 5698 5695 5691 5688 5688 5685 5679 5673 5673 5672 5669 5664 5658 5648 5643 5639 5636 5633 5635 5636 5631 5626 5618 5614 5607 5599 5596 5596 5595 5594 5589 5582 5578 5574 5570 5566 5562 5556 5552 5549 5545 5542
5699 5697 5691 5685 5687 5682 5677 5671 5668 5662 5661 5657 5654 5649 5640 5634 5633 5629 5629 5629 5631 5629 5619 5612 5605 5600 5594 5589 5589 5591 5590 5586 5583 5580 5575 5571 5566 5562 5555 5548 5545 5544 5542
5697 5690 5687 5684 5680 5673 5667 5665 5661 5655 5651 5648 5646 5642 5634 5629 5626 5625 5625 5626 5626 5620 5609 5602 5599 5594 5588 5583 5583 5584 5582 5580 5580 5578 5575 5573 5570 5563 5557 5549 5545 5543 5542
5688 5682 5680 5679 5672 5663 5660 5658 5656 5651 5648 5645 5640 5635 5628 5622 5620 5619 5620 5620 5616 5613 5602 5597 5594 5590 5584 5580 5575 5574 5573 5572 5571 5574 5571 5571 5568 5564 5558 5552 5545 5538 5535
5689 5682 5672 5668 5663 5657 5656 5651 5650 5648 5642 5638 5632 5628 5623 5616 5612 5610 5610 5607 5604 5606 5602 5595 5591 5588 5583 5578 5574 5570 5567 5565 5568 5571 5569 5566 5564 5561 5558 5551 5544 5536 5531
5678 5668 5661 5659 5657 5653 5647 5644 5641 5637 5632 5630 5627 5624 5615 5609 5606 5602 5600 5598 5596 5597 5593 5589 5586 5583 5580 5574 5570 5567 5564 5564 5565 5562 5559 5557 5557 5555 5553 5549 5543 5536 5530
5665 5655 5656 5654 5646 5644 5641 5636 5634 5631 5628 5628 5627 5622 5614 5603 5600 5595 5594 5592 5590 5588 5584 5582 5579 5578 5574 5569 5566 5561 5559 5557 5556 5553 5550 5549 5549 5548 5548 5546 5538 5531 5527
5655 5650 5647 5641 5639 5637 5631 5630 5628 5628 5628 5625 5620 5613 5606 5596 5591 5585 5586 5584 5582 5580 5577 5575 5572 5572 5569 5562 5559 5556 5550 5548 5545 5543 5541 5541 5541 5540 5539 5538 5532 5527 5522
5644 5641 5637 5635 5623 5616 5608 5611 5609 5603 5607 5609 5606 5599 5599 5587 5576 5572 5570 5570 5568 5568 5566 5571 5565 5561 5557 5554 5550 5546 5541 5539 5537 5535 5532 5531 5531 5531 5530 5528 5523 5520 5516
5637 5634 5632 5626 5619 5613 5604 5596 5591 5590 5592 5592 5591 5588 5580 5576 5569 5567 5565 5563 5562 5562 5564 5558 5554 5550 5547 5541 5538 5535 5531 5527 5527 5525 5523 5521 5520 5521 5519 5518 5514 5509 5508
5627 5628 5624 5619 5612 5605 5602 5596 5588 5577 5579 5579 5579 5575 5571 5567 5564 5560 5558 5556 5557 5555 5554 5550 5543 5540 5537 5533 5527 5525 5521 5517 5515 5515 5513 5511 5509 5509 5507 5505 5502 5498 5496
5622 5618 5620 5614 5609 5604 5600 5592 5588 5584 5578 5570 5566 5564 5560 5558 5556 5554 5551 5548 5551 5546 5543 5537 5532 5528 5526 5524 5518 5515 5511 5507 5504 5503 5502 5500 5496 5495 5493 5492 5489 5484 5480
5615 5614 5612 5608 5605 5604 5598 5592 5590 5584 5575 5566 5558 5554 5552 5550 5549 5548 5546 5546 5541 5537 5533 5528 5522 5518 5513 5511 5508 5505 5501 5496 5492 5491 5489 5487 5483 5480 5479 5477 5474 5467 5463
5609 5605 5602 5601 5600 5596 5589 5587 5579 5576 5570 5563 5561 5556 5550 5545 5547 5543 5540 5536 5531 5526 5522 5519 5513 5507 5502 5499 5497 5493 5487 5482 5478 5476 5475 5473 5470 5466 5464 5461 5458 5455 5452
5598 5596 5593 5594 5595 5591 5588 5581 5574 5569 5566 5562 5551 5545 5541 5546 5543 5536 5532 5526 5520 5516 5513 5509 5503 5498 5491 5486 5482 5477 5472 5466 5463 5462 5460 5460 5455 5450 5449 5446 5444 5441 5440
5590 5589 5589 5586 5588 5584 5580 5575 5570 5563 5558 5551 5544 5538 5534 5537 5534 5528 5523 5517 5511 5506 5502 5498 5492 5484 5478 5472 5467 5462 5457 5451 5448 5447 5445 5441 5440 5435 5434 5432 5431 5430 5430
5574 5576 5581 5580 5577 5569 5572 5569 5563 5555 5549 5544 5536 5532 5530 5530 5525 5519 5513 5506 5500 5497 5490 5483 5477 5470 5464 5458 5453 5447 5441 5436 5432 5429 5426 5425 5426 5421 5421 5421 5420 5419 5418
5566 5568 5571 5569 5564 5565 5565 5560 5554 5549 5543 5538 5533 5529 5525 5522 5515 5508 5502 5496 5490 5483 5477 5471 5464 5457 5450 5445 5439 5434 5428 5424 5420 5416 5413 5413 5415 5412 5409 5410 5410 5410 5409
5559 5560 5563 5561 5556 5558 5554 5552 5547 5542 5536 5532 5526 5522 5518 5512 5504 5498 5492 5486 5480 5472 5465 5458 5452 5446 5438 5431 5426 5421 5418 5415 5410 5406 5406 5406 5405 5404 5402 5401 5400 5401 5400
5550 5552 5553 5550 5547 5545 5542 5539 5538 5535 5529 5522 5518 5513 5508 5503 5494 5487 5482 5474 5470 5464 5456 5448 5440 5434 5427 5419 5414 5411 5408 5405 5404 5403 5400 5399 5396 5395 5394 5393 5391 5392 5391